RH
23 29 34 26 20 21 17 18 18 16 14 18 22 26 30 48 48 43 45 55 36 39 40 40 42 45 59 69 72 75 70 78 80 82 67 78 88 83 73 57 58 44 48 52
26 31 22 20 20 23 21 22 21 14 12 11 20 23 23 51 60 50 58 36 38 41 44 46 47 53 63 70 70 72 73 66 85 75 79 88 77 74 68 59 56 51 52 54
30 32 25 26 29 23 20 25 20 16 10 9 18 19 20 20 19 38 33 28 32 44 46 49 50 54 71 73 72 70 83 78 77 81 83 76 77 73 71 63 56 60 63 60
26 25 26 28 28 18 21 20 23 19 22 25 24 37 37 26 23 23 37 47 46 42 50 55 59 62 74 82 64 81 76 74 78 93 68 71 75 70 65 62 67 67 63 51
33 26 30 32 24 18 23 19 20 23 24 34 31 32 37 36 24 23 26 25 35 43 49 58 66 71 73 75 73 78 76 85 85 72 69 70 69 66 62 71 70 64 48 52
29 19 24 30 22 15 20 22 27 31 33 55 36 43 50 42 25 30 26 24 28 45 49 58 64 70 68 68 74 76 87 74 68 64 67 62 61 62 63 63 59 52 61 44
26 23 26 26 28 22 24 27 49 50 73 67 43 42 42 36 29 33 31 23 30 42 52 60 70 74 73 74 77 76 72 70 68 60 63 64 63 62 60 51 49 58 36 17
36 47 39 31 23 28 30 32 59 62 90 61 49 49 34 25 27 29 25 27 35 47 54 61 71 74 76 74 70 67 66 63 61 62 64 65 63 59 46 52 53 27 12 12
49 43 35 32 30 23 23 33 34 71 72 85 56 31 24 31 41 43 41 39 48 50 54 57 62 63 65 66 67 63 59 60 62 64 65 64 56 47 56 46 25 16 14 14
55 50 47 41 36 22 21 22 40 55 60 52 34 28 42 32 32 36 53 44 47 48 50 51 54 53 54 58 60 61 62 63 64 64 60 48 55 54 46 31 21 23 19 24
51 55 59 45 36 29 28 28 24 32 58 65 73 42 19 24 27 31 43 43 43 45 44 44 45 45 47 52 56 62 62 63 65 62 52 53 58 51 38 33 36 36 36 39
48 56 68 40 25 20 20 36 43 64 38 69 74 51 20 18 20 22 25 38 41 43 42 39 39 42 48 55 61 62 60 62 60 54 49 58 58 45 44 46 48 50 53 54
33 35 60 39 33 32 25 23 21 41 63 52 66 52 20 16 15 16 20 22 38 40 40 38 37 40 47 55 60 60 62 60 51 48 51 55 56 48 52 51 52 54 55 56
31 35 43 57 41 32 33 28 26 31 68 56 63 36 24 23 23 20 17 19 29 36 38 37 38 40 46 52 56 58 63 61 50 48 53 53 51 47 51 50 52 53 49 57
39 42 30 36 37 31 27 29 30 27 36 47 40 34 28 18 22 20 18 18 19 26 35 37 38 42 47 51 54 58 62 59 49 53 52 51 41 48 48 51 50 48 52 55
39 62 44 42 39 42 40 36 32 32 27 23 24 27 19 20 18 18 17 20 22 22 23 28 40 43 47 50 55 59 59 56 50 52 51 46 41 43 57 52 55 43 38 44
53 69 68 58 49 44 51 35 35 33 29 26 31 26 24 29 29 25 24 23 24 25 25 28 40 46 48 51 53 55 56 53 51 52 55 44 41 48 53 60 62 45 44 48
65 65 77 78 67 50 38 24 20 30 25 26 27 35 31 27 34 29 26 28 30 32 32 33 35 39 46 50 51 53 55 51 51 59 50 45 48 56 63 79 54 40 39 47
65 76 85 72 79 49 32 28 28 24 32 30 33 31 28 25 34 41 34 33 32 31 31 32 33 34 39 44 47 49 52 50 57 49 46 50 56 70 90 53 42 43 49 52
50 69 73 82 80 66 52 28 23 23 52 37 33 37 34 29 72 62 39 36 34 38 42 38 38 40 44 48 48 48 50 53 49 50 54 65 90 94 44 42 53 56 56 69
87 83 80 94 90 76 46 26 24 41 52 34 32 35 38 54 48 41 40 45 46 44 45 45 44 46 50 48 48 48 47 50 61 67 80 91 92 67 55 50 61 54 63 53
77 92 94 96 99 87 32 28 38 56 35 33 33 35 35 37 39 44 48 49 48 49 52 53 52 52 51 49 48 52 57 79 86 91 96 96 86 56 44 46 42 42 44 61
72 75 83 75 80 51 24 30 33 29 31 34 39 45 43 51 56 54 52 52 50 51 52 53 54 56 58 57 55 59 72 89 98 98 84 59 50 39 33 39 42 47 58 68
42 39 72 52 34 34 24 26 33 36 44 49 54 55 57 60 58 56 52 48 48 49 53 57 57 56 59 64 67 73 83 83 77 71 59 47 30 32 35 41 56 74 84 89
60 42 48 51 37 48 56 53 52 51 55 60 61 60 60 60 58 57 55 54 56 58 58 58 64 77 81 87 91 85 80 65 53 42 29 32 34 36 39 45 59 76 88 89
45 53 70 79 52 64 66 62 60 59 61 60 61 61 59 58 60 61 64 66 66 72 82 86 88 91 87 73 63 54 45 34 32 31 35 39 40 40 46 54 60 73 94 96
Wind_Speed
11 2 4 5 4 7 7 6 6 7 9 7 8 9 16 24 29 32 27 14 24 26 24 22 19 19 24 25 25 22 21 21 20 20 25 19 12 12 11 7 5 5 4 5
2 3 1 5 12 9 7 11 11 6 6 4 5 7 10 25 21 35 28 25 23 21 22 24 22 18 27 29 21 22 20 15 18 16 19 13 16 15 9 8 9 9 7 6
3 5 7 7 13 12 1 2 5 5 3 1 5 2 4 7 16 28 36 25 32 31 32 31 29 22 24 27 24 18 20 17 19 20 18 20 18 16 14 11 10 8 7 8
3 8 2 8 14 9 5 2 3 2 2 2 5 2 4 4 4 8 28 34 35 37 34 31 27 27 20 22 21 15 15 22 24 22 22 25 24 22 18 14 12 10 10 13
7 5 5 7 8 4 5 5 1 3 1 4 4 2 5 3 4 3 6 24 32 44 37 32 27 25 23 19 16 9 25 21 22 29 25 23 22 21 22 22 16 9 11 15
7 13 3 4 6 2 6 3 3 4 3 1 4 5 4 7 20 5 7 10 13 40 34 29 25 23 23 20 18 21 24 29 30 25 26 25 27 28 24 19 13 11 15 18
6 8 2 5 6 6 1 4 3 4 5 3 15 0 9 16 12 10 15 23 13 29 31 28 29 26 24 24 24 28 31 28 28 26 27 26 24 21 18 14 14 17 16 13
5 5 4 5 5 5 3 6 4 5 1 5 7 5 5 15 25 26 29 25 17 28 29 28 27 28 29 28 29 27 27 27 28 28 27 24 21 18 16 15 15 14 11 11
4 1 6 9 8 2 4 2 6 6 3 2 5 6 5 9 5 11 17 22 24 27 26 26 28 28 27 28 27 24 25 26 27 26 25 23 21 17 14 13 11 10 10 11
5 3 2 9 20 15 3 3 4 3 5 4 4 3 3 5 7 10 11 18 29 27 27 30 31 29 28 28 25 25 25 26 24 23 18 18 14 12 12 10 9 10 10 11
5 5 5 5 8 9 1 2 3 3 5 4 1 4 3 5 5 9 17 31 35 34 34 34 32 30 30 28 24 26 25 25 25 23 18 16 12 12 10 9 10 11 13 13
12 6 5 13 11 8 4 6 5 5 4 2 4 5 3 7 5 9 12 30 37 38 38 36 35 34 33 31 28 27 28 27 27 25 19 16 12 12 11 10 12 13 15 18
3 0 3 8 5 5 4 5 4 4 3 5 5 5 1 6 5 4 7 8 33 37 37 37 37 37 36 33 30 30 31 29 27 26 22 17 15 13 12 13 11 14 16 20
5 2 6 6 7 3 3 4 5 5 4 3 5 5 11 7 8 10 9 6 16 34 36 37 39 40 39 36 32 31 31 32 28 26 20 17 14 14 17 14 13 15 19 20
5 4 1 3 5 5 2 4 6 5 6 7 8 7 11 1 4 7 18 13 7 8 20 32 39 40 37 32 30 31 31 31 30 25 19 16 13 20 17 16 17 19 19 20
1 1 2 2 6 7 4 7 7 7 5 2 3 6 5 12 14 13 12 8 7 4 6 9 24 36 35 32 31 31 31 31 33 28 22 14 18 19 16 16 11 19 18 19
5 5 3 3 4 6 6 7 6 6 5 3 5 6 5 8 12 14 13 15 6 3 0 4 2 17 27 29 29 30 29 30 30 25 20 22 19 17 16 13 13 19 19 17
5 4 3 3 3 2 8 5 5 5 3 6 8 10 11 11 24 23 12 15 15 8 4 3 3 4 10 15 21 23 28 28 25 19 23 20 16 14 10 6 11 18 18 22
3 4 2 4 3 5 8 4 3 3 5 6 8 7 12 12 20 18 17 15 13 10 8 6 6 10 12 16 16 20 24 23 20 26 22 16 12 8 3 8 16 18 21 20
6 5 4 2 4 6 6 2 4 4 2 7 13 9 9 10 5 3 9 9 7 9 11 6 5 6 8 12 16 25 27 26 27 22 16 11 5 5 7 11 16 23 24 23
3 3 5 2 2 7 6 6 2 6 6 6 9 11 12 4 5 6 9 5 5 4 5 5 6 5 12 19 24 26 26 24 16 16 13 4 5 5 9 18 22 22 22 20
6 6 3 3 2 6 7 4 6 6 10 9 9 9 8 6 8 11 11 7 3 4 3 3 3 8 12 13 18 19 16 10 5 2 9 12 7 10 19 21 19 19 21 21
1 6 5 6 5 8 5 12 12 10 9 7 8 10 6 7 11 12 11 9 8 5 3 2 1 4 5 4 4 6 10 12 19 20 8 4 13 18 17 17 17 18 14 14
2 5 3 5 3 5 11 6 17 16 15 10 10 8 5 9 6 10 12 11 8 6 4 3 4 5 6 8 8 7 10 6 2 3 8 15 16 15 14 16 15 16 17 21
5 6 5 2 3 18 19 18 16 16 13 11 9 7 10 7 11 8 9 8 7 6 6 7 9 9 6 4 4 3 2 5 9 12 14 15 15 15 16 16 17 16 17 21
5 6 4 4 4 17 10 14 11 13 13 12 9 9 10 8 9 6 8 8 7 7 9 9 9 7 6 5 6 9 11 14 15 16 16 16 17 17 18 19 19 16 19 24
Wind_Direction
209 116 220 245 261 274 224 239 271 259 209 167 164 160 141 148 150 177 213 247 159 158 161 166 167 173 182 188 180 185 189 195 196 189 195 200 201 188 178 179 188 205 225 199
235 203 185 28 248 260 283 338 266 249 151 147 121 202 183 160 175 181 182 164 190 173 177 172 183 159 189 192 197 193 197 201 201 191 182 193 173 178 197 199 213 198 230 272
146 245 309 277 274 274 155 265 293 137 119 343 15 75 178 204 180 162 177 197 187 194 179 182 191 178 186 190 200 197 198 198 182 160 166 169 173 188 197 207 218 203 230 267
245 254 261 282 285 244 246 126 315 128 25 170 78 291 14 333 171 194 174 184 193 188 184 184 187 189 190 187 210 200 199 171 162 167 183 185 188 188 198 210 186 205 259 294
243 261 271 294 244 72 253 180 225 294 311 78 327 128 239 330 295 257 277 188 184 186 185 181 183 187 197 210 229 195 159 169 172 176 189 193 195 204 192 183 190 223 279 283
215 258 140 238 280 165 282 328 339 343 101 109 220 145 225 191 214 188 259 201 184 179 181 178 187 193 193 212 192 179 173 171 176 185 194 197 198 195 191 198 224 262 276 271
272 262 299 244 308 294 64 19 3 0 12 236 10 62 239 219 219 202 199 201 195 171 169 173 173 179 184 188 189 182 181 184 192 192 193 201 202 202 212 225 256 272 276 279
197 324 10 15 249 192 233 150 165 167 174 301 350 233 235 217 206 205 213 215 193 161 167 172 174 172 177 183 189 191 198 205 207 206 205 205 208 213 224 252 263 270 268 274
133 124 350 297 323 272 293 337 175 101 7 59 223 254 354 106 137 188 204 199 178 163 169 177 179 183 191 195 197 200 208 212 216 217 217 215 216 227 247 253 261 261 274 285
189 128 31 307 300 282 191 253 22 24 143 241 285 324 197 123 167 207 182 199 173 171 178 185 188 197 206 210 212 202 215 220 228 228 219 215 228 240 249 254 258 269 284 298
141 111 255 192 234 234 223 257 220 142 132 169 175 280 175 105 146 146 187 180 180 181 184 189 194 202 206 209 211 204 213 220 225 232 223 224 233 248 244 252 268 287 299 305
220 167 149 210 232 196 183 187 182 124 258 185 146 270 196 142 167 162 172 186 189 189 190 194 198 200 202 203 203 204 207 218 224 230 227 235 257 250 253 262 280 292 298 303
169 219 53 344 343 345 250 225 227 127 91 186 133 257 209 167 172 154 173 163 193 193 194 196 196 200 201 200 203 203 209 216 223 228 229 244 254 240 243 253 273 277 287 295
112 162 149 186 216 229 299 252 275 158 114 204 205 265 297 256 198 198 188 169 181 198 199 201 200 203 202 203 205 206 208 215 223 227 235 248 254 247 238 241 249 284 293 284
115 159 267 298 323 336 290 248 296 264 208 152 233 217 257 2 137 201 195 192 195 139 206 209 204 203 203 205 211 214 215 217 221 224 229 247 239 233 221 246 278 295 276 289
71 202 92 304 339 32 355 327 319 311 309 312 257 248 229 154 114 90 81 109 120 86 19 23 219 208 209 213 212 214 216 217 219 223 224 223 208 212 245 249 270 302 310 298
125 124 95 235 355 16 343 241 235 247 276 257 290 276 349 58 63 66 67 61 80 106 165 351 138 216 218 216 217 220 221 218 217 222 219 213 218 233 237 263 325 307 294 291
128 115 100 182 38 48 240 261 141 167 31 43 76 71 75 75 65 56 66 81 73 69 36 351 331 299 238 231 226 225 216 214 211 207 205 209 220 232 246 341 303 284 289 281
124 124 102 135 183 287 318 15 64 107 53 32 76 63 80 74 73 49 63 66 55 33 5 352 305 281 265 247 227 214 204 198 195 189 190 200 215 220 307 318 293 292 285 285
54 83 114 123 143 200 236 146 34 50 87 29 54 34 41 50 57 280 22 15 6 14 15 342 282 235 211 199 204 193 179 186 180 178 191 194 171 347 321 302 289 280 280 286
43 12 144 124 169 288 253 146 108 93 224 89 61 61 50 85 123 24 360 28 47 14 352 303 275 203 150 160 178 172 167 163 164 184 187 202 358 297 297 281 275 291 291 291
161 143 186 91 102 279 185 85 135 184 94 69 46 40 42 30 22 36 45 102 102 106 115 109 179 146 146 161 180 161 155 136 147 257 316 304 292 281 274 284 296 296 299 290
104 173 176 162 210 228 142 120 132 122 110 84 77 60 57 62 45 40 91 101 102 115 143 147 175 137 130 158 205 224 239 267 291 292 286 270 265 282 295 293 298 306 306 302
83 133 108 77 269 187 195 133 117 113 100 94 86 88 84 77 69 104 119 125 138 152 134 76 56 36 23 357 337 330 317 304 287 280 286 294 302 298 296 300 302 305 308 309
198 125 158 225 287 90 72 88 100 108 111 100 106 106 101 123 105 122 129 135 122 97 62 34 20 7 15 15 13 27 348 333 319 308 304 302 301 300 299 298 304 294 292 296
171 173 148 207 126 109 96 101 125 121 113 109 129 113 106 111 117 109 95 88 74 63 61 62 62 54 57 40 9 350 334 321 313 308 305 301 299 298 298 299 296 294 292 290